DW8214 Vilamoura PT current weather conditions

sailwx.info

Wind from 291

Air temperature 21.1° C
Dewpoint 12.0° C

Last reported at 2018-May-28 08:55 UTC.
Time now 2018-May-28 09:19 UTC

Location: N 37°06' W 008°07'.
View on Google Maps.

See reports from other nearby stations

  
Tides and Currents Weather Stations Pressure Air Temp Water Temp Dewpoint Dewpoint Depression Visibility Wind Speed Wind Dir Waves Ship Positions
date/time (UTC)wind fromknots sea level pressurealtimeterstation pressurevisibilityair tempwater tempwave heightnotes
2018-May-28 08:55 291 21.1
2018-May-28 08:40 309 20.0
2018-May-28 08:25 009 18.9
2018-May-28 08:10 360 18.3
2018-May-28 07:55 269 17.2
2018-May-28 07:40 360 17.8
2018-May-28 07:25 005 17.2
2018-May-28 07:10 360 16.7
2018-May-28 06:55 305 16.1
2018-May-28 06:40 306 16.1
2018-May-28 06:25 355 15.0
2018-May-28 06:10 335 14.4
2018-May-28 05:55 335 14.4
2018-May-28 05:40 318 13.9
2018-May-28 05:25 330 13.9
2018-May-28 05:10 351 13.9
2018-May-28 04:55 005 13.9
2018-May-28 04:40 014 14.4
2018-May-28 04:25 013 14.4
2018-May-28 04:10 005 14.4
2018-May-28 03:55 321 14.4
2018-May-28 03:40 005 14.4
2018-May-28 03:24 355 14.4
2018-May-28 03:10 009 14.4
2018-May-28 02:54 355 0 gusting 4 14.4
2018-May-28 02:40 333 14.4
2018-May-28 02:24 350 14.4
2018-May-28 02:09 005 0 gusting 3 14.4
2018-May-28 01:54 355 14.4
2018-May-28 01:39 342 15.0
2018-May-28 01:24 355 15.0
2018-May-28 01:09 355 15.0
2018-May-28 00:54 355 15.6
2018-May-28 00:39 355 15.6
2018-May-28 00:24 355 15.6
2018-May-28 00:09 332 15.6
2018-May-27 23:54 308 15.6
2018-May-27 23:39 011 16.1
2018-May-27 23:24 350 16.1
2018-May-27 23:09 341 16.1
2018-May-27 22:54 027 16.1
2018-May-27 22:39 355 16.7
2018-May-27 22:24 351 16.7
2018-May-27 22:09 279 16.7
2018-May-27 21:54 360 17.2
2018-May-27 21:39 021 17.2
2018-May-27 21:24 302 17.2
2018-May-27 21:09 347 17.8
2018-May-27 20:54 321 17.8
2018-May-27 20:39 321 18.3
2018-May-27 20:24 317 18.3
2018-May-27 20:09 355 18.9
2018-May-27 19:54 302 18.9
2018-May-27 19:39 346 19.4
2018-May-27 19:24 324 0 gusting 6 20.0
2018-May-27 19:09 349 20.6
2018-May-27 18:54 328 21.1
2018-May-27 18:39 005 22.2
2018-May-27 18:24 294 22.2
2018-May-27 18:09 304 22.2
2018-May-27 17:54 236 22.2
2018-May-27 17:39 234 3 gusting 7 22.8
2018-May-27 17:24 211 1 gusting 8 23.3
2018-May-27 17:09 199 1 gusting 9 23.9
2018-May-27 16:54 277 25.6
2018-May-27 16:39 294 25.0
2018-May-27 16:24 243 25.0
2018-May-27 16:09 290 25.0
2018-May-27 15:54 221 23.3
2018-May-27 15:39 230 22.8
2018-May-27 15:24 185 22.2
2018-May-27 15:10 163 21.7
2018-May-27 14:54 249 21.1
2018-May-27 14:39 257 20.6
2018-May-27 14:24 185 1 gusting 11 20.6
2018-May-27 14:09 235 2 gusting 6 20.6
2018-May-27 13:54 196 3 gusting 9 20.6
2018-May-27 13:39 160 1 gusting 8 20.6
2018-May-27 13:24 221 0 gusting 11 21.7
2018-May-27 13:08 192 2 gusting 9 22.2
2018-May-27 12:53 131 1 gusting 6 22.2
2018-May-27 12:38 250 2 gusting 9 21.1
2018-May-27 12:23 187 3 gusting 8 21.1
2018-May-27 12:08 196 3 gusting 10 21.1
2018-May-27 11:53 201 2 gusting 6 20.6
2018-May-27 11:38 221 20.6
2018-May-27 11:23 209 2 gusting 7 20.0
2018-May-27 11:08 184 3 gusting 6 20.6
2018-May-27 10:53 193 2 gusting 6 21.1
2018-May-27 10:38 207 1 gusting 6 22.2
2018-May-27 10:23 317 21.7
2018-May-27 10:08 349 21.1
2018-May-27 09:53 349 21.1
2018-May-27 09:38 333 21.7
2018-May-27 09:23 019 22.2
2018-May-27 09:08 350 21.7
2018-May-27 08:53 343 20.6
2018-May-27 08:38 306 19.4
2018-May-27 08:23 306 18.3
2018-May-27 08:08 005 17.2
2018-May-27 07:53 005 16.7
2018-May-27 07:38 005 16.7
2018-May-27 07:23 010 16.1
2018-May-27 07:08 011 16.1
2018-May-27 06:53 012 16.1
2018-May-27 06:38 012 16.1
2018-May-27 06:23 012 16.1
2018-May-27 06:08 012 15.6
2018-May-27 05:52 012 15.6
2018-May-27 05:38 012 15.6
2018-May-27 05:22 012 15.6
2018-May-27 05:07 005 15.6
2018-May-27 04:52 338 15.6
2018-May-27 04:37 344 15.6
2018-May-27 04:22 010 15.6
2018-May-27 04:07 309 16.1
2018-May-27 03:52 005 16.1
2018-May-27 03:37 311 16.1
2018-May-27 03:22 327 16.1
2018-May-27 02:52 329 16.1
2018-May-27 02:37 346 16.1
2018-May-27 02:22 346 16.1
2018-May-27 02:07 346 15.6
2018-May-27 01:52 346 15.6
2018-May-27 01:37 346 15.6
2018-May-27 01:22 346 15.6
2018-May-27 01:07 346 15.6
2018-May-27 00:52 327 15.6
2018-May-27 00:37 348 15.6
2018-May-27 00:22 315 15.6
2018-May-27 00:07 315 15.6
2018-May-26 23:52 315 15.6
2018-May-26 23:37 005 15.6
2018-May-26 23:22 223 15.6
2018-May-26 23:07 223 15.6
2018-May-26 22:52 223 16.1
2018-May-26 22:37 223 16.1
2018-May-26 22:22 223 16.7
2018-May-26 22:07 223 16.7
2018-May-26 21:52 223 16.7
2018-May-26 21:37 223 17.2
2018-May-26 21:22 223 17.2
2018-May-26 21:07 223 17.2
2018-May-26 20:52 223 17.2
2018-May-26 20:37 223 17.2
2018-May-26 20:22 223 17.2
2018-May-26 20:07 223 17.8
2018-May-26 19:52 223 17.8
2018-May-26 19:37 200 17.8
2018-May-26 19:22 184 18.3
2018-May-26 19:07 195 18.3
2018-May-26 18:52 184 18.3
2018-May-26 18:37 226 18.9
2018-May-26 18:22 219 0 gusting 4 19.4
2018-May-26 18:07 200 0 gusting 7 20.0
2018-May-26 17:52 251 1 gusting 6 20.0
2018-May-26 17:37 214 20.0
2018-May-26 17:22 172 0 gusting 6 20.0
2018-May-26 17:07 195 0 gusting 6 20.0
2018-May-26 16:52 193 1 gusting 6 20.6
2018-May-26 16:37 206 1 gusting 8 20.6
2018-May-26 16:22 200 2 gusting 8 21.1
2018-May-26 16:07 180 0 gusting 6 21.1
2018-May-26 15:52 164 0 gusting 7 21.7
2018-May-26 15:37 193 21.7
2018-May-26 15:22 212 0 gusting 7 22.2
2018-May-26 15:07 168 2 gusting 7 22.2
2018-May-26 14:52 170 0 gusting 7 22.2
2018-May-26 14:37 171 1 gusting 8 22.2
2018-May-26 14:22 193 0 gusting 6 22.2
2018-May-26 14:07 162 0 gusting 6 22.2
2018-May-26 13:37 120 22.8
2018-May-26 13:22 144 0 gusting 8 22.2
2018-May-26 13:07 164 1 gusting 7 22.8
2018-May-26 12:52 196 0 gusting 6 22.2
2018-May-26 12:37 161 2 gusting 7 22.2
2018-May-26 12:22 164 1 gusting 8 22.2
2018-May-26 12:07 205 2 gusting 6 22.2
2018-May-26 11:52 133 2 gusting 6 22.2
2018-May-26 11:36 201 1 gusting 6 21.7
2018-May-26 11:21 191 0 gusting 4 22.2
2018-May-26 11:06 169 1 gusting 6 22.2
2018-May-26 10:51 221 21.7
2018-May-26 10:36 128 21.7
2018-May-26 10:21 152 21.7
2018-May-26 10:06 159 21.7
2018-May-26 09:51 147 21.1
2018-May-26 09:36 130 20.6
2018-May-26 09:21 163 20.6
2018-May-26 09:06 165 20.0